Regional Weather Roundup
Issued by NWS Little Rock, AR

Home | Current Version | Previous Version | Text Only | Print | Product List | Glossary On
Versions: 1 2 3 4 5 6 7 8 9 10 11 12 13 14 15 16 17 18 19 20 21 22 23 24 25 26 27 28 29 30 31
000
ASUS44 KLZK 270505
RWRLZK

WEATHER ROUNDUP FOR ARKANSAS
NATIONAL WEATHER SERVICE LITTLE ROCK AR
1200 AM CDT SAT MAY 27 2017

NOTE: "FAIR" INDICATES FEW OR NO CLOUDS BELOW 12,000 FEET WITH NO
SIGNIFICANT WEATHER AND/OR OBSTRUCTIONS TO VISIBILITY.

ARZ001-003-010-029-270600-
NORTHWEST ARKANSAS

CITY           SKY/WX    TMP DP  RH WIND       PRES   REMARKS
FAYETTEVILLE   CLOUDY    75  73  93 S9        29.83F
FORT SMITH     CLOUDY    78  72  81 E3        29.81S
HARRISON       CLOUDY    73  71  93 SE6       29.86S
BENTONVILLE    CLOUDY    77  70  78 CALM      29.85R
ROGERS         CLOUDY    76  71  85 S7        29.84S THUNDER
SILOAM SPGS    CLOUDY    75  68  78 S7        29.83S
HIGHFILL       CLOUDY    77  72  84 S6        29.84R
$$

ARZ004-005-016-270600-
NORTH CENTRAL ARKANSAS

CITY           SKY/WX    TMP DP  RH WIND       PRES   REMARKS
BATESVILLE     PTCLDY    77  70  78 S10G16    29.87S
FLIPPIN        PTCLDY    73  66  78 S5        29.83S
MTN HOME       PTCLDY    73  70  90 S5        29.85F
$$

ARZ040-041-270600-
WEST CENTRAL ARKANSAS

CITY           SKY/WX    TMP DP  RH WIND       PRES   REMARKS
MENA           CLOUDY    81  79  94 S3        29.88S HX  89
MOUNT IDA      MOCLDY    77  72  84 CALM      29.86R
$$

ARZ009-017-025-026-028-270600-
NORTHEAST ARKANSAS

CITY           SKY/WX    TMP DP  RH WIND       PRES   REMARKS
JONESBORO      MOCLDY    78  69  73 SW12G18   29.87S
NEWPORT        CLEAR     75  70  84 S10       29.86F
WALNUT RIDGE   CLEAR     75  66  73 CALM      29.86F
BLYTHEVILLE    MOCLDY    77  70  79 SW9       29.88F
$$

ARZ022-023-033-042-044-270600-
CENTRAL ARKANSAS

CITY           SKY/WX    TMP DP  RH WIND       PRES   REMARKS
LITTLE ROCK    MOCLDY    76  73  91 S7        29.87F
N LITTLE ROCK    N/A     76  72  87 S6        29.87S
JACKSONVILLE   PTCLDY    77  73  87 S6        29.86F
CONWAY           N/A     79  73  83 S9        29.84R
SEARCY         CLOUDY    75  73  93 S6        29.88F
HOT SPRINGS    CLOUDY    80  73  79 VRB5      29.88S
RUSSELLVILLE   MOCLDY    76  72  87 E3        29.84R
CLINTON        CLOUDY    73  72  94 CALM      29.87S FOG
$$

ARZ036-270600-
EAST ARKANSAS

CITY           SKY/WX    TMP DP  RH WIND       PRES   REMARKS
WEST MEMPHIS   CLOUDY    77  71  82 S8        29.89F
$$

ARZ050-053-066-070-073-270600-
SOUTHWEST ARKANSAS

CITY           SKY/WX    TMP DP  RH WIND       PRES   REMARKS
ARKADELPHIA    FAIR      77  74  90 S5        29.87S
CAMDEN         MOCLDY    77  70  78 S7        29.88S
TEXARKANA      CLOUDY    78  75  90 S12       29.87R
EL DORADO      MOCLDY    74  73  97 S6        29.90S
DE QUEEN       CLOUDY    81  75  82 S5        29.83S HX  87
$$

ARZ056-057-069-270600-
SOUTHEAST ARKANSAS

CITY           SKY/WX    TMP DP  RH WIND       PRES   REMARKS
PINE BLUFF     CLOUDY    77  71  82 S8        29.89S
STUTTGART      CLOUDY    79  63  57 S13       29.89F
MONTICELLO     CLOUDY    77  71  82 S7        29.90S

$$






USA.gov is the U.S. government's official web portal to all federal, state and local government web resources and services.